[[{"header":{"parameterUnit":"m.s-1","parameterCategory":1,"la1":30.2991,"la2":30.254,"lo1":-89.0895,"lo2":-89.0444,"dy":0.0017,"dx":0.0017,"nx":28,"ny":28,"refTime":"2024-02-29T09:00:00:Z","depth":0,"parameterNumber":2,"parameterNumberName":"U-component_of_WINDS"},"data":[0,0,0,0,0,0,0,0,0,0,0,0,0,0,0,0,0,0,0,0,0,0,0,0,0,0,0,0,0,0,0,0,0,0,0,0,0,0,0,0,0,0,0,0,0,0,0,0,0,0,0,0,0,0,0,0,0,0,-4.3675,-4.3676,0,-4.3721,-4.3722,-4.3722,-4.3625,-4.3621,-4.3618,-4.3615,-4.3664,-4.3668,-4.3672,0,0,0,0,0,0,0,0,0,0,0,0,0,-4.3503,-4.3507,-4.3675,-4.3676,-4.3676,-4.3721,-4.3722,-4.3722,-4.3625,-4.3621,-4.3618,-4.3614,-4.3663,-4.3668,-4.3673,0,0,0,0,0,0,0,0,0,0,0,0,0,-4.3566,-4.3508,-4.3675,-4.3633,-4.363,-4.3721,-4.3722,-4.3723,-4.3626,-4.3621,-4.3616,-4.3612,-4.3661,-4.3667,-4.3674,-4.3808,0,0,-4.3693,-4.3696,0,0,0,0,0,0,0,0,-4.3563,-4.3573,-4.3639,-4.3636,-4.3633,-4.3662,-4.3679,-4.3751,-4.3627,-4.3628,-4.3615,-4.361,-4.3668,-4.3673,-4.3692,-4.381,-4.3813,-4.3694,-4.3698,-4.37,-4.3702,0,0,0,0,0,0,0,-4.3559,-4.357,-4.3693,-4.364,-4.3636,-4.3612,-4.3616,-4.3692,-4.3674,-4.3627,-4.362,-4.3627,-4.3665,-4.3686,-4.3693,-4.3813,-4.3693,-4.3699,-4.3703,-4.3706,-4.4045,-4.4049,0,0,0,0,0,0,-4.3559,-4.3567,-4.3692,-4.3695,-4.3585,-4.3619,-4.3623,-4.3658,-4.3673,-4.367,-4.3631,-4.3622,-4.3678,-4.3685,-4.3694,-4.3853,-4.37,-4.3706,-4.371,-4.4039,-4.4046,-4.4051,0,0,0,0,0,0,-4.3556,-4.3572,-4.369,-4.3629,-4.3642,-4.3627,-4.3666,-4.3661,-4.3682,-4.3675,-4.3672,-4.3656,-4.3674,-4.3685,-4.378,-4.3854,-4.3709,-4.3715,-4.4033,-4.4041,-4.4048,-4.4173,0,0,0,0,0,0,-4.3552,-4.3571,-4.3622,-4.3631,-4.3646,-4.3776,-4.3671,-4.3665,-4.3693,-4.3682,-4.3698,-4.3696,-4.3671,-4.3772,-4.3787,-4.386,-4.372,-4.4027,-4.4037,-4.4046,-4.4162,-4.4184,-4.4202,0,0,0,0,0,-4.3546,-4.3655,-4.3625,-4.3641,-4.3709,-4.378,-4.3789,-4.3758,-4.37,-4.3751,-4.3746,-4.3696,-4.3843,-4.3782,-4.3799,-4.3875,-4.4022,-4.4034,-4.4045,-4.4153,-4.418,-4.4202,0,0,0,0,0,0,-4.3656,-4.3656,-4.3622,-4.3738,-4.376,-4.3764,-4.3828,-4.3787,-4.3826,-4.3814,-4.3774,-4.3779,-4.3882,-4.3887,-4.382,-4.4006,-4.3922,-4.3938,-4.3999,-4.4024,-4.4044,-4.4041,-4.3725,0,0,0,0,0,-4.3693,-4.3751,-4.3748,-4.385,-4.3863,-4.3844,-4.3873,-4.3847,-4.3869,-4.3878,-4.388,-4.3903,-4.3954,-4.3989,-4.4036,-4.4161,-4.4164,-4.4222,-4.4242,-4.4258,-4.4273,-4.4341,-4.4367,-4.4089,-4.4089,-4.4089,0,0,-4.3772,-4.3779,-4.3818,-4.3872,-4.3886,-4.3947,-4.3852,-4.392,-4.3965,-4.3888,-4.3979,-4.3981,-4.4004,-4.4116,-4.4165,-4.4123,-4.435,-4.4273,-4.4287,-4.4292,-4.4355,-4.4382,-4.4405,-4.4097,-4.4096,-4.4095,0,0,-4.3947,-4.3957,-4.4044,-4.406,-4.4082,-4.4068,-4.4089,-4.4099,-4.4098,-4.4188,-4.4131,-4.4184,-4.4273,-4.4292,-4.4313,-4.4494,-4.4449,-4.451,-4.4616,-4.4682,-4.4704,-4.4723,-4.4789,-4.4813,-4.4524,-4.4524,-4.4524,0,-4.4042,-4.4131,-4.4094,-4.4166,-4.4192,-4.4124,-4.4212,-4.4229,-4.4266,-4.4285,-4.4237,-4.4348,-4.4358,-4.4474,-4.4518,-4.4537,-4.456,-4.4509,-4.4704,-4.4723,-4.474,-4.4803,-4.4827,-4.4532,-4.4531,-4.453,-4.4529,0,-4.4247,-4.431,-4.4377,-4.4414,-4.4447,-4.4527,-4.4502,-4.454,-4.4511,-4.4502,-4.4595,-4.4605,-4.4653,-4.4678,-4.465,-4.479,-4.4763,-4.471,-4.4626,-4.4775,-4.4833,-4.4856,-4.4542,-4.454,-4.4537,-4.4535,0,0,-4.4495,-4.4509,-4.4535,-4.4551,-4.4569,-4.4617,-4.4694,-4.474,-4.4774,-4.4801,-4.4864,-4.4941,-4.4892,-4.4916,-4.489,-4.4948,-4.5092,-4.4888,-4.4888,-4.4927,-4.5247,-4.5288,-4.5317,-4.5061,-4.5066,-4.5069,-4.5246,0,-4.4669,-4.48,-4.4769,-4.4899,-4.4957,-4.4892,-4.4959,-4.4978,-4.4972,-4.502,-4.5012,-4.5068,-4.4999,-4.5013,-4.5067,-4.5063,-4.5156,-4.5049,-4.5122,-4.5125,-4.512,-4.5347,-4.539,-4.5557,-4.5268,-4.5272,-4.5275,0,-4.489,-4.4925,-4.5062,-4.5071,-4.5094,-4.5155,-4.5194,-4.5241,-4.5261,-4.5252,-4.5279,-4.5241,-4.5317,-4.523,-4.5335,-4.5263,-4.529,-4.5293,-4.5298,-4.5305,-4.521,-4.5362,-4.5609,-4.5635,-4.531,-4.5307,-4.5304,0,-4.5059,-4.514,-4.5232,-4.5247,-4.526,-4.5304,-4.5312,-4.5327,-4.5357,-4.5391,-4.541,-4.5454,-4.5478,-4.5512,-4.5487,-4.5426,-4.5596,-4.5508,-4.5592,-4.5593,-4.5633,-4.5631,-4.589,-4.5647,-4.5647,-4.5647,-4.5646,0,-4.5257,-4.5344,-4.5308,-4.5365,-4.546,-4.5422,-4.5517,-4.5517,-4.5531,-4.5587,-4.5533,-4.5587,-4.5549,-4.56,-4.558,-4.567,-4.5681,-4.5677,-4.5671,-4.5683,-4.5684,-4.5702,-4.5691,-4.5653,-4.5652,-4.565,-4.5649,0,-4.5463,-4.5442,-4.5539,-4.5542,-4.5545,-4.5615,-4.5619,-4.5672,-4.566,-4.5732,-4.5747,-4.573,-4.5787,-4.5764,-4.5825,-4.5811,-4.5927,-4.5905,-4.5921,-4.5916,-4.6002,-4.5995,-4.6284,-4.632,-4.6053,-4.6055,-4.6057,0,-4.5592,-4.5657,-4.5668,-4.5701,-4.5712,-4.5767,-4.5797,-4.5762,-4.5795,-4.5822,-4.5873,-4.5924,-4.5964,-4.6058,-4.6052,-4.6098,-4.6078,-4.6175,-4.6084,-4.6094,-4.6081,-4.6078,-4.6085,-4.6194,-4.6197,-4.62,-4.6202,0,-4.5825,-4.5811,-4.5856,-4.5898,-4.5935,-4.5966,-4.5993,-4.6023,-4.5989,-4.603,-4.6087,-4.6118,-4.6179,-4.6232,-4.6272,-4.628,-4.6237,-4.623,-4.6253,-4.6267,-4.6274,-4.6273,-4.5973,-4.6224,-4.6222,-4.6221,-4.6219,-4.6218,-4.5997,-4.6052,-4.6068,-4.612,-4.6136,-4.6162,-4.6212,-4.6207,-4.6254,-4.6301,-4.6277,-4.6344,-4.6361,-4.6412,-4.6425,-4.6477,-4.6439,-4.6471,-4.648,-4.6489,-4.6501,-4.6264,-4.6484,-4.6484,-4.6483,-4.6482,-4.6482,0,-4.6228,-4.6235,-4.6283,-4.6322,-4.6363,-4.6316,-4.6343,-4.6381,-4.644,-4.646,-4.65,-4.6566,-4.6616,-4.6613,-4.666,-4.6702,-4.6684,-4.6716,-4.6714,-4.6717,-4.6531,-4.6508,-4.6731,-4.6731,-4.6731,-4.673,-4.673,-4.673,-4.6353,-4.6444,-4.6432,-4.653,-4.6536,-4.6601,-4.662,-4.6644,-4.666,-4.6736,-4.6777,-4.6774,-4.6785,-4.6832,-4.6877,-4.6874,-4.6895,-4.6936,-4.6926,-4.6754,-4.6729,-4.6706,-4.6684,-4.694,-4.694,-4.7107,-4.7109,-4.711]},{"header":{"parameterUnit":"m.s-1","parameterCategory":1,"la1":30.2991,"la2":30.254,"lo1":-89.0895,"lo2":-89.0444,"dy":0.0017,"dx":0.0017,"nx":28,"ny":28,"refTime":"2024-02-29T09:00:00:Z","depth":0,"parameterNumber":3,"parameterNumberName":"V-component_of_WINDS"},"data":[0,0,0,0,0,0,0,0,0,0,0,0,0,0,0,0,0,0,0,0,0,0,0,0,0,0,0,0,0,0,0,0,0,0,0,0,0,0,0,0,0,0,0,0,0,0,0,0,0,0,0,0,0,0,0,0,0,0,-4.2728,-4.2729,0,-4.2742,-4.2742,-4.2742,-4.2711,-4.271,-4.2709,-4.2708,-4.2721,-4.2722,-4.2723,0,0,0,0,0,0,0,0,0,0,0,0,0,-4.2673,-4.2674,-4.2728,-4.2729,-4.2729,-4.2742,-4.2742,-4.2742,-4.2711,-4.271,-4.2709,-4.2708,-4.272,-4.2722,-4.2723,0,0,0,0,0,0,0,0,0,0,0,0,0,-4.2693,-4.2675,-4.2728,-4.2715,-4.2714,-4.2742,-4.2742,-4.2743,-4.2712,-4.271,-4.2709,-4.2707,-4.272,-4.2722,-4.2723,-4.2765,0,0,-4.2729,-4.273,0,0,0,0,0,0,0,0,-4.2692,-4.2695,-4.2717,-4.2716,-4.2715,-4.2723,-4.2727,-4.275,-4.2712,-4.2712,-4.2708,-4.2706,-4.2723,-4.2724,-4.273,-4.2766,-4.2766,-4.2729,-4.2731,-4.2731,-4.2732,0,0,0,0,0,0,0,-4.269,-4.2694,-4.2734,-4.2717,-4.2716,-4.2707,-4.2709,-4.2731,-4.2726,-4.2712,-4.271,-4.2712,-4.2722,-4.2728,-4.273,-4.2766,-4.2729,-4.2731,-4.2732,-4.2733,-4.2836,-4.2837,0,0,0,0,0,0,-4.2691,-4.2693,-4.2733,-4.2734,-4.2699,-4.271,-4.2711,-4.2722,-4.2725,-4.2724,-4.2713,-4.2711,-4.2726,-4.2728,-4.273,-4.2779,-4.2731,-4.2733,-4.2734,-4.2834,-4.2836,-4.2838,0,0,0,0,0,0,-4.269,-4.2695,-4.2733,-4.2713,-4.2717,-4.2712,-4.2725,-4.2723,-4.273,-4.2726,-4.2725,-4.2721,-4.2725,-4.2728,-4.2757,-4.2779,-4.2734,-4.2736,-4.2832,-4.2835,-4.2837,-4.2876,0,0,0,0,0,0,-4.2689,-4.2695,-4.2711,-4.2714,-4.2719,-4.276,-4.2726,-4.2725,-4.2733,-4.273,-4.2733,-4.2732,-4.2724,-4.2754,-4.2758,-4.2781,-4.2737,-4.283,-4.2833,-4.2836,-4.2873,-4.288,-4.2886,0,0,0,0,0,-4.2687,-4.2721,-4.2712,-4.2717,-4.2739,-4.2761,-4.2763,-4.2753,-4.2735,-4.2751,-4.2749,-4.2732,-4.2776,-4.2757,-4.2762,-4.2785,-4.2829,-4.2832,-4.2836,-4.287,-4.2878,-4.2885,0,0,0,0,0,0,-4.2721,-4.2722,-4.2711,-4.2748,-4.2755,-4.2756,-4.2775,-4.2763,-4.2774,-4.277,-4.2757,-4.2758,-4.2789,-4.279,-4.2769,-4.2825,-4.2799,-4.2804,-4.2823,-4.2831,-4.2837,-4.2836,-4.2739,0,0,0,0,0,-4.2733,-4.2752,-4.2751,-4.2783,-4.2787,-4.2781,-4.279,-4.2782,-4.2788,-4.279,-4.279,-4.2796,-4.2811,-4.2821,-4.2835,-4.2873,-4.2873,-4.2891,-4.2897,-4.2903,-4.2907,-4.2926,-4.2934,-4.285,-4.285,-4.285,0,0,-4.2758,-4.276,-4.2773,-4.279,-4.2794,-4.2813,-4.2783,-4.2805,-4.2818,-4.2793,-4.282,-4.2821,-4.2826,-4.286,-4.2875,-4.2862,-4.293,-4.2907,-4.2911,-4.2913,-4.2931,-4.2939,-4.2946,-4.2852,-4.2852,-4.2851,0,0,-4.2813,-4.2817,-4.2844,-4.2849,-4.2855,-4.2851,-4.2857,-4.286,-4.2859,-4.2887,-4.2868,-4.2884,-4.291,-4.2915,-4.292,-4.2976,-4.2961,-4.2981,-4.3014,-4.3033,-4.304,-4.3045,-4.3065,-4.3072,-4.2985,-4.2985,-4.2985,0,-4.2842,-4.287,-4.2859,-4.2882,-4.2889,-4.2868,-4.2895,-4.29,-4.2911,-4.2916,-4.2902,-4.2934,-4.2936,-4.297,-4.2984,-4.2989,-4.2996,-4.298,-4.304,-4.3045,-4.3051,-4.3069,-4.3076,-4.2988,-4.2987,-4.2987,-4.2987,0,-4.2906,-4.2926,-4.2947,-4.2958,-4.2968,-4.2993,-4.2985,-4.2996,-4.2987,-4.2984,-4.3011,-4.3013,-4.3027,-4.3034,-4.3025,-4.3067,-4.3059,-4.3042,-4.3016,-4.3061,-4.3078,-4.3085,-4.2991,-4.299,-4.2989,-4.2989,0,0,-4.2984,-4.2988,-4.2996,-4.3,-4.3006,-4.3021,-4.3044,-4.3057,-4.3067,-4.3075,-4.3094,-4.3116,-4.3101,-4.3107,-4.3098,-4.3115,-4.3159,-4.3097,-4.3097,-4.3108,-4.3204,-4.3217,-4.3225,-4.3149,-4.315,-4.3151,-4.3204,0,-4.3037,-4.3078,-4.3068,-4.3108,-4.3125,-4.3105,-4.3125,-4.313,-4.3128,-4.3142,-4.3139,-4.3155,-4.3133,-4.3137,-4.3153,-4.315,-4.3178,-4.3146,-4.3166,-4.3167,-4.3165,-4.3234,-4.3247,-4.3297,-4.321,-4.3212,-4.3212,0,-4.3106,-4.3116,-4.3158,-4.316,-4.3167,-4.3186,-4.3197,-4.321,-4.3216,-4.3212,-4.322,-4.3207,-4.3229,-4.3203,-4.3233,-4.3212,-4.3219,-4.3219,-4.322,-4.3221,-4.3192,-4.3237,-4.3312,-4.332,-4.3223,-4.3222,-4.3221,0,-4.3157,-4.3182,-4.321,-4.3215,-4.3218,-4.3231,-4.3233,-4.3237,-4.3245,-4.3255,-4.326,-4.3272,-4.3278,-4.3288,-4.3278,-4.326,-4.331,-4.3283,-4.3307,-4.3307,-4.3318,-4.3318,-4.3396,-4.3324,-4.3324,-4.3323,-4.3323,0,-4.3218,-4.3244,-4.3233,-4.325,-4.3279,-4.3267,-4.3295,-4.3295,-4.3298,-4.3314,-4.3297,-4.3313,-4.33,-4.3314,-4.3307,-4.3332,-4.3335,-4.3333,-4.3331,-4.3334,-4.3335,-4.3339,-4.3335,-4.3325,-4.3325,-4.3325,-4.3324,0,-4.3281,-4.3274,-4.3303,-4.3304,-4.3305,-4.3326,-4.3326,-4.3341,-4.3337,-4.3358,-4.3362,-4.3356,-4.3371,-4.3363,-4.3379,-4.3375,-4.3408,-4.3401,-4.3406,-4.3404,-4.3429,-4.3427,-4.3512,-4.3523,-4.3444,-4.3445,-4.3446,0,-4.332,-4.334,-4.3342,-4.3352,-4.3355,-4.3371,-4.338,-4.3369,-4.3378,-4.3385,-4.34,-4.3414,-4.3425,-4.3451,-4.3447,-4.3459,-4.3452,-4.3481,-4.3454,-4.3457,-4.3452,-4.3451,-4.3453,-4.3487,-4.3488,-4.3489,-4.3489,0,-4.339,-4.3386,-4.3399,-4.3411,-4.3422,-4.3431,-4.3438,-4.3447,-4.3436,-4.3447,-4.3463,-4.3472,-4.3488,-4.3502,-4.3513,-4.3514,-4.35,-4.3498,-4.3504,-4.3508,-4.351,-4.3509,-4.3421,-4.3496,-4.3495,-4.3495,-4.3494,-4.3494,-4.3442,-4.3458,-4.3463,-4.3478,-4.3482,-4.3489,-4.3504,-4.3501,-4.3515,-4.3527,-4.352,-4.3538,-4.3542,-4.3555,-4.3558,-4.3572,-4.356,-4.3569,-4.3571,-4.3574,-4.3577,-4.3508,-4.3573,-4.3573,-4.3573,-4.3573,-4.3573,0,-4.3511,-4.3513,-4.3527,-4.3537,-4.3549,-4.3535,-4.3542,-4.3553,-4.3569,-4.3574,-4.3585,-4.3603,-4.3617,-4.3614,-4.3626,-4.3638,-4.3632,-4.3641,-4.364,-4.3641,-4.3587,-4.358,-4.3646,-4.3646,-4.3646,-4.3646,-4.3646,-4.3646,-4.3548,-4.3575,-4.3571,-4.3599,-4.36,-4.3619,-4.3624,-4.363,-4.3634,-4.3655,-4.3666,-4.3664,-4.3666,-4.3678,-4.369,-4.3688,-4.3694,-4.3706,-4.3702,-4.3652,-4.3645,-4.3638,-4.3631,-4.3707,-4.3707,-4.3755,-4.3755,-4.3756]}]]